Regional Weather Roundup
Issued by NWS

Home | Current Version | Previous Version | Text Only | Print | Product List | Glossary On
Versions: 1 2 3 4 5 6 7 8 9 10 11 12 13 14 15 16 17 18 19 20 21 22 23 24 25 26 27
000
ASUS46 KSEW 231710
RWRWA

WASHINGTON REGIONAL WEATHER ROUNDUP
NATIONAL WEATHER SERVICE SEATTLE WA
1000 AM PDT THU OCT 23 2014

NOTE:"FAIR" INDICATES FEW OR NO CLOUDS BELOW 12,000 FEET WITH NO
SIGNIFICANT WEATHER AND/OR OBSTRUCTIONS TO VISIBILITY.

WAZ505-507>509-231800-
SEATTLE, TACOMA, EVERETT, AND VICINITY

CITY           SKY/WX    TMP DP  RH WIND       PRES   REMARKS
EVERETT        LGT RAIN  50  47  89 S15       29.76R
BOEING FIELD   LGT RAIN  54  48  80 SE6       29.77R
RENTON         LGT RAIN  52  49  89 CALM      29.78R FOG
SEATAC AIRPORT LGT RAIN  51  48  89 S6        29.78R
JBLM-MCCHORD   CLOUDY    52  51  99 S6        29.79R
PUYALLUP       NOT AVBL
JBLM-FT LEWIS  DRIZZLE   52  51  96 S7        29.78R
TACOMA NARROWS LGT RAIN  51  48  89 W3        29.79R
$$

WAZ001-503-506-510-514-515-231800-
NORTH INTERIOR

CITY           SKY/WX    TMP DP  RH WIND       PRES   REMARKS
BELLINGHAM     LGT RAIN  53  46  77 SE18G25   29.71R
FRIDAY HARBOR  CLOUDY    52  50  93 SE6       29.71S
EASTSOUND      LGT RAIN  52  50  93 S8G16     29.68S
PORT ANGELES     N/A    N/A N/A N/A MISG      29.70R
NAS WHIDBEY    LGT RAIN  54  49  83 SE15      29.72S
BURLINGTON     CLOUDY   N/A N/A N/A SE8       29.74S
$$

WAZ020-022-039-040-504-511-512-231800-
SOUTHWEST INTERIOR

CITY           SKY/WX    TMP DP  RH WIND       PRES   REMARKS
SHELTON        CLOUDY    51  48  89 CALM      29.75R
OLYMPIA        CLOUDY    51  49  92 W5        29.79R
CHEHALIS       PTSUNNY   54  50  87 S8G15     29.80R
KELSO          CLOUDY    55  50  82 SE7       29.84R
VANCOUVER      CLOUDY    57  53  86 E3        29.84R
SCAPPOOSE, OR  CLOUDY    56  54  93 CALM      29.81R
PORTLAND, OR   CLOUDY    57  55  93 S7        29.84R
$$

WAZ021-516-517-231800-
WASHINGTON COAST

CITY           SKY/WX    TMP DP  RH WIND       PRES   REMARKS
FORKS          LGT RAIN  52  51  97 S7        29.69R FOG
HOQUIAM        MOSUNNY   55  52  89 SE8       29.76R
ASTORIA, OR    MOSUNNY   56  50  80 SW10      29.79R
$$

WAZ019-023-024-040-518-519-231800-
CASCADE MOUNTAINS AND COLUMBIA GORGE

CITY           SKY/WX    TMP DP  RH WIND       PRES   REMARKS
STAMPEDE PASS  NOT AVBL
TROUTDALE, OR  LGT RAIN  57  53  86 SW8       29.84R
THE DALLES, OR CLOUDY    54  52  93 CALM      29.82R
$$

WAZ026-027-041>044-520-521-231800-
EAST SLOPES

CITY           SKY/WX    TMP DP  RH WIND       PRES   REMARKS
OMAK           CLOUDY    54  43  66 S9        29.75S
WENATCHEE      CLOUDY    49  46  90 CALM      29.77R
ELLENSBURG     CLOUDY    49  45  86 CALM      29.77R
YAKIMA         LGT RAIN  51  47  86 NW7       29.78R
$$

WAZ028-034-035-231800-
COLUMBIA BASIN

CITY           SKY/WX    TMP DP  RH WIND       PRES   REMARKS
EPHRATA        LGT RAIN  50  46  86 CALM      29.76F
MOSES LAKE     CLOUDY    55  52  89 SE7       29.77S
PASCO          CLOUDY    59  54  83 CALM      29.78F
HERMISTON, OR  LGT RAIN  56  54  93 NW7       29.78F
$$

WAZ036>038-231800-
NORTHEAST WASHINGTON

CITY           SKY/WX    TMP DP  RH WIND       PRES   REMARKS
SPOKANE GEIGER CLOUDY    51  50  96 S9        29.79F
SPOKANE FELTS  CLOUDY    55  50  83 S5        29.80S
FAIRCHILD AFB  CLOUDY    51  50  98 S14       29.79F
COEURDALENE,ID CLOUDY    52  48  87 S10       29.80F
DEER PARK      CLOUDY    51  49  92 S6        29.80S
$$

WAZ029>033-231800-
SOUTHEAST WASHINGTON

CITY           SKY/WX    TMP DP  RH WIND       PRES   REMARKS
PULLMAN        CLOUDY    53  48  83 NE3       29.84S
LEWISTON, ID   CLOUDY    57  49  74 E9        29.80F
WALLA WALLA    CLOUDY    59  54  83 CALM      29.79S
PENDLETON, OR  CLOUDY    58  52  80 SE5       29.79S
$$



USA.gov is the U.S. government's official web portal to all federal, state and local government web resources and services.